[[{"header":{"parameterUnit":"m.s-1","parameterCategory":2,"la1":30.2991,"la2":30.254,"lo1":-89.0895,"lo2":-89.0444,"dy":0.0017,"dx":0.0017,"nx":28,"ny":28,"refTime":"2024-11-29T09:00:00:Z","depth":"0","parameterNumber":2,"parameterNumberName":"U-component_of_CURRENTS"},"data":[0,0,0,0,0,0,0,0,0,0,0,0,0,0,0,0,0,0,0,0,0,0,0,0,0,0,0,0,0,0,0,0,0,0,0,0,0,0,0,0,0,0,0,0,0,0,0,0,0,0,0,0,0,0,0,0,0,0,0.1866,0.1866,0,0.1878,0.1878,0.1878,0.1867,0.1866,0.1866,0.1866,0.1841,0.1841,0.184,0,0,0,0,0,0,0,0,0,0,0,0,0,0.1819,0.182,0.1866,0.1866,0.1867,0.1878,0.1878,0.1878,0.1867,0.1866,0.1866,0.1866,0.1841,0.1841,0.184,0,0,0,0,0,0,0,0,0,0,0,0,0,0.1834,0.182,0.1866,0.1865,0.1865,0.1878,0.1878,0.1878,0.1867,0.1866,0.1866,0.1866,0.1841,0.1841,0.184,0.1841,0,0,0.1838,0.1838,0,0,0,0,0,0,0,0,0.1833,0.1835,0.1865,0.1865,0.1865,0.1873,0.1853,0.1865,0.1867,0.1863,0.1866,0.1866,0.1851,0.1849,0.1848,0.184,0.1839,0.1838,0.1837,0.1837,0.1837,0,0,0,0,0,0,0,0.1832,0.1834,0.1868,0.1865,0.1866,0.1859,0.1861,0.1855,0.1855,0.1863,0.1863,0.1869,0.185,0.1849,0.1848,0.1839,0.1838,0.1837,0.1837,0.1836,0.1857,0.1858,0,0,0,0,0,0,0.1838,0.1834,0.1868,0.1869,0.1851,0.1861,0.1862,0.1869,0.1856,0.1855,0.187,0.1869,0.185,0.1848,0.1847,0.1872,0.1837,0.1836,0.1836,0.1856,0.1857,0.1858,0,0,0,0,0,0,0.1837,0.1841,0.1867,0.1854,0.1857,0.1862,0.1869,0.1869,0.1872,0.1862,0.1859,0.1874,0.185,0.1848,0.185,0.187,0.1836,0.1835,0.1855,0.1856,0.1858,0.1906,0,0,0,0,0,0,0.1835,0.184,0.1845,0.1854,0.1858,0.1881,0.187,0.187,0.1877,0.1876,0.1864,0.1862,0.185,0.1852,0.185,0.1868,0.1835,0.1854,0.1856,0.1857,0.1903,0.1909,0.1914,0,0,0,0,0,0.1833,0.1842,0.1845,0.1849,0.1865,0.1882,0.1883,0.1884,0.1878,0.1884,0.1877,0.1862,0.1862,0.1852,0.1849,0.1868,0.1853,0.1855,0.1857,0.1901,0.1908,0.1914,0,0,0,0,0,0,0.1819,0.1842,0.1845,0.1859,0.1873,0.1881,0.1888,0.1888,0.1888,0.1886,0.1871,0.1868,0.188,0.1867,0.1856,0.188,0.1856,0.1858,0.1891,0.1897,0.1902,0.1903,0.1834,0,0,0,0,0,0.1821,0.1836,0.1854,0.1865,0.1875,0.1882,0.1888,0.1892,0.1895,0.1894,0.1887,0.1883,0.1887,0.1886,0.1884,0.1894,0.1895,0.1906,0.1911,0.1916,0.1916,0.1938,0.1945,0.1866,0.1866,0.1865,0,0,0.1817,0.1834,0.184,0.1864,0.1874,0.1891,0.1884,0.1901,0.1913,0.1892,0.1901,0.19,0.1894,0.1908,0.1912,0.19,0.1942,0.1919,0.1923,0.192,0.1941,0.1948,0.1955,0.1867,0.1867,0.1867,0,0,0.1823,0.1835,0.1851,0.1867,0.1892,0.1899,0.1907,0.1921,0.1926,0.1938,0.1931,0.1942,0.1939,0.1945,0.1947,0.198,0.1971,0.1981,0.2007,0.2029,0.2035,0.2041,0.2066,0.2073,0.1982,0.1983,0.1983,0,0.1815,0.184,0.1857,0.1879,0.1894,0.1905,0.1924,0.1934,0.1946,0.1957,0.1946,0.1964,0.1959,0.1985,0.1998,0.1993,0.2002,0.1982,0.2036,0.2042,0.2047,0.207,0.2078,0.1985,0.1985,0.1985,0.1984,0,0.1837,0.1856,0.1868,0.19,0.1918,0.1937,0.1959,0.1975,0.1981,0.1991,0.2017,0.2015,0.2026,0.2032,0.2023,0.2061,0.2057,0.2041,0.2019,0.2058,0.208,0.2088,0.1989,0.1988,0.1987,0.1987,0,0,0.1813,0.1871,0.1873,0.1892,0.1931,0.1945,0.1978,0.2009,0.203,0.2043,0.207,0.2085,0.2086,0.2088,0.2086,0.2103,0.2153,0.2089,0.2088,0.2113,0.2207,0.2237,0.2248,0.2147,0.2148,0.2149,0.2214,0,0.1821,0.1863,0.1892,0.1925,0.1946,0.1976,0.2006,0.2037,0.2057,0.2086,0.2101,0.2121,0.2108,0.2117,0.2136,0.2148,0.2172,0.2137,0.2166,0.2167,0.2189,0.2257,0.2248,0.2308,0.222,0.2222,0.2222,0,0.1824,0.1855,0.1892,0.1943,0.1956,0.1977,0.2027,0.2055,0.2104,0.2123,0.2152,0.2161,0.2199,0.2174,0.2223,0.2202,0.2209,0.2215,0.2217,0.2231,0.2211,0.2253,0.2324,0.2305,0.2233,0.2232,0.2232,0,0.1792,0.1848,0.1877,0.1894,0.1957,0.198,0.2011,0.2063,0.2089,0.2145,0.2169,0.2211,0.2237,0.2254,0.2279,0.2252,0.2331,0.2293,0.2329,0.2331,0.2322,0.2322,0.2377,0.2327,0.2327,0.2327,0.2327,0,0.1782,0.18,0.1865,0.1879,0.1911,0.1964,0.1996,0.2039,0.2097,0.2135,0.218,0.2224,0.2257,0.2305,0.2308,0.2361,0.2361,0.2354,0.2358,0.2341,0.2341,0.2321,0.2295,0.2329,0.2329,0.2328,0.2328,0,0.1734,0.178,0.1811,0.1878,0.1895,0.1915,0.1972,0.2002,0.2068,0.2121,0.2142,0.2242,0.2323,0.236,0.2411,0.2411,0.2411,0.2458,0.2443,0.2445,0.2448,0.2425,0.2403,0.2312,0.2506,0.2508,0.2509,0,0.1711,0.1726,0.1789,0.1805,0.1832,0.1866,0.1894,0.1969,0.201,0.2134,0.2167,0.2276,0.2351,0.2461,0.251,0.2555,0.2463,0.2549,0.2494,0.2473,0.2449,0.2355,0.227,0.2503,0.2504,0.2504,0.2505,0,0.1662,0.1688,0.1715,0.1753,0.1781,0.1804,0.1858,0.1883,0.1989,0.2055,0.2167,0.2241,0.2404,0.2487,0.2578,0.2591,0.248,0.2566,0.2546,0.2465,0.2363,0.2269,0.2435,0.2512,0.2511,0.2511,0.251,0.251,0.1612,0.162,0.1664,0.169,0.1721,0.1742,0.1738,0.1816,0.1877,0.1977,0.2112,0.2224,0.2424,0.2574,0.2581,0.2631,0.2539,0.2582,0.2561,0.2471,0.2368,0.2559,0.2638,0.2638,0.2638,0.2638,0.2638,0,0.1545,0.1571,0.1598,0.1628,0.1631,0.167,0.1712,0.1708,0.1757,0.1907,0.2004,0.2247,0.2398,0.2533,0.2683,0.2638,0.2503,0.2585,0.2446,0.2358,0.2554,0.254,0.26,0.26,0.26,0.26,0.26,0.26,0.1512,0.1517,0.1539,0.1527,0.1544,0.1514,0.1514,0.154,0.1622,0.1759,0.191,0.2068,0.2393,0.2725,0.2774,0.2695,0.2459,0.2438,0.2338,0.2507,0.2504,0.2501,0.2483,0.253,0.2529,0.2075,0.2072,0.207]},{"header":{"parameterUnit":"m.s-1","parameterCategory":2,"la1":30.2991,"la2":30.254,"lo1":-89.0895,"lo2":-89.0444,"dy":0.0017,"dx":0.0017,"nx":28,"ny":28,"refTime":"2024-11-29T09:00:00:Z","depth":"0","parameterNumber":3,"parameterNumberName":"V-component_of_CURRENTS"},"data":[0,0,0,0,0,0,0,0,0,0,0,0,0,0,0,0,0,0,0,0,0,0,0,0,0,0,0,0,0,0,0,0,0,0,0,0,0,0,0,0,0,0,0,0,0,0,0,0,0,0,0,0,0,0,0,0,0,0,-0.0485,-0.0486,0,-0.0533,-0.0533,-0.0534,-0.056,-0.056,-0.056,-0.056,-0.0593,-0.0594,-0.0595,0,0,0,0,0,0,0,0,0,0,0,0,0,-0.0456,-0.0457,-0.0485,-0.0486,-0.0486,-0.0533,-0.0533,-0.0534,-0.056,-0.056,-0.056,-0.056,-0.0593,-0.0594,-0.0595,0,0,0,0,0,0,0,0,0,0,0,0,0,-0.0484,-0.0457,-0.0485,-0.0504,-0.0506,-0.0532,-0.0533,-0.0534,-0.056,-0.056,-0.056,-0.056,-0.0592,-0.0594,-0.0595,-0.0604,0,0,-0.0599,-0.06,0,0,0,0,0,0,0,0,-0.0482,-0.0485,-0.0501,-0.0503,-0.0505,-0.054,-0.0536,-0.0557,-0.056,-0.054,-0.056,-0.056,-0.0573,-0.0576,-0.0587,-0.0606,-0.0607,-0.0599,-0.06,-0.0601,-0.0601,0,0,0,0,0,0,0,-0.048,-0.0483,-0.0505,-0.0501,-0.0504,-0.0524,-0.0527,-0.054,-0.0557,-0.0542,-0.0544,-0.0548,-0.0575,-0.0585,-0.0588,-0.0608,-0.0599,-0.0601,-0.0601,-0.0602,-0.0634,-0.0634,0,0,0,0,0,0,-0.047,-0.0481,-0.0503,-0.0506,-0.0492,-0.0524,-0.0528,-0.0529,-0.0557,-0.0561,-0.0548,-0.0549,-0.0583,-0.0586,-0.0589,-0.059,-0.0601,-0.0602,-0.0603,-0.0634,-0.0634,-0.0634,0,0,0,0,0,0,-0.047,-0.0472,-0.0501,-0.0494,-0.0499,-0.0524,-0.0525,-0.053,-0.0539,-0.0561,-0.0565,-0.0551,-0.0583,-0.0587,-0.0597,-0.0592,-0.0603,-0.0604,-0.0634,-0.0634,-0.0634,-0.0599,0,0,0,0,0,0,-0.0468,-0.0471,-0.0469,-0.0493,-0.0499,-0.0511,-0.0526,-0.0531,-0.0541,-0.0543,-0.0565,-0.0569,-0.0583,-0.0594,-0.0598,-0.0594,-0.0605,-0.0634,-0.0634,-0.0634,-0.06,-0.0598,-0.0596,0,0,0,0,0,-0.0467,-0.0461,-0.0469,-0.0472,-0.0496,-0.0511,-0.0516,-0.0535,-0.0541,-0.0543,-0.0558,-0.0568,-0.0597,-0.0596,-0.06,-0.0596,-0.0634,-0.0634,-0.0634,-0.0601,-0.0598,-0.0596,0,0,0,0,0,0,-0.0446,-0.0464,-0.0473,-0.0472,-0.0489,-0.0515,-0.0517,-0.0531,-0.0546,-0.0545,-0.0568,-0.0572,-0.0581,-0.0593,-0.0591,-0.0606,-0.0618,-0.0618,-0.0591,-0.0589,-0.0587,-0.0566,-0.0606,0,0,0,0,0,-0.044,-0.0441,-0.0463,-0.0462,-0.0468,-0.0493,-0.0501,-0.0514,-0.053,-0.0537,-0.0554,-0.057,-0.0585,-0.059,-0.0606,-0.0612,-0.0623,-0.0613,-0.0611,-0.0609,-0.0595,-0.0613,-0.0611,-0.0634,-0.0634,-0.0634,0,0,-0.0432,-0.0442,-0.0442,-0.0458,-0.0472,-0.0473,-0.0498,-0.0506,-0.0506,-0.0537,-0.0541,-0.0564,-0.0586,-0.0594,-0.0599,-0.0602,-0.061,-0.0609,-0.0607,-0.0594,-0.0613,-0.061,-0.0608,-0.0634,-0.0634,-0.0634,0,0,-0.0412,-0.0423,-0.0416,-0.0427,-0.0443,-0.0458,-0.0457,-0.0481,-0.049,-0.0501,-0.0523,-0.054,-0.0563,-0.0576,-0.0586,-0.0581,-0.06,-0.0591,-0.0559,-0.0577,-0.0575,-0.0573,-0.0588,-0.0588,-0.0587,-0.0587,-0.0587,0,-0.04,-0.0395,-0.0417,-0.0413,-0.0414,-0.0446,-0.0436,-0.0452,-0.0476,-0.0477,-0.0495,-0.0529,-0.0553,-0.0556,-0.0558,-0.0575,-0.0588,-0.0566,-0.0573,-0.0571,-0.057,-0.0586,-0.0587,-0.0585,-0.0585,-0.0585,-0.0586,0,-0.0376,-0.0372,-0.0367,-0.037,-0.0377,-0.0374,-0.0395,-0.04,-0.0418,-0.0434,-0.0447,-0.0485,-0.0501,-0.0518,-0.0537,-0.0539,-0.0552,-0.057,-0.0576,-0.0565,-0.0584,-0.0585,-0.0583,-0.0583,-0.0584,-0.0584,0,0,-0.0342,-0.0348,-0.0345,-0.0333,-0.0352,-0.0348,-0.0349,-0.0353,-0.0341,-0.0379,-0.037,-0.0413,-0.0436,-0.0449,-0.048,-0.0498,-0.0511,-0.0526,-0.0528,-0.0535,-0.0548,-0.0574,-0.0578,-0.0531,-0.0531,-0.0531,-0.0565,0,-0.0313,-0.0289,-0.0304,-0.0276,-0.0263,-0.0287,-0.028,-0.0289,-0.0307,-0.0307,-0.035,-0.0361,-0.0409,-0.0417,-0.0443,-0.0491,-0.0511,-0.05,-0.0562,-0.0564,-0.0583,-0.0579,-0.0617,-0.0652,-0.0566,-0.0567,-0.0567,0,-0.0278,-0.0265,-0.0234,-0.0216,-0.0212,-0.0203,-0.0186,-0.0187,-0.0204,-0.022,-0.0245,-0.0281,-0.0312,-0.0358,-0.0429,-0.0419,-0.0477,-0.052,-0.0523,-0.0555,-0.0591,-0.0649,-0.0658,-0.0838,-0.0568,-0.0568,-0.0568,0,-0.0227,-0.021,-0.0179,-0.0176,-0.0167,-0.0151,-0.0148,-0.0156,-0.0144,-0.0164,-0.0159,-0.0211,-0.0229,-0.0306,-0.0402,-0.0414,-0.048,-0.0511,-0.0587,-0.059,-0.0638,-0.0645,-0.0821,-0.0559,-0.0559,-0.0559,-0.0559,0,-0.0183,-0.0154,-0.0151,-0.013,-0.0086,-0.01,-0.006,-0.0067,-0.0067,-0.0041,-0.0109,-0.0099,-0.0217,-0.0273,-0.0371,-0.0477,-0.0459,-0.0575,-0.0599,-0.0628,-0.0634,-0.0805,-0.0899,-0.056,-0.056,-0.056,-0.0559,0,-0.0128,-0.0131,-0.0089,-0.0071,-0.0061,-0.0028,-0.0004,0.0024,0.0011,0.0044,0.0042,-0.001,-0.0085,-0.0207,-0.0327,-0.043,-0.0646,-0.0579,-0.0604,-0.063,-0.0875,-0.0964,-0.1149,-0.1232,-0.0668,-0.0669,-0.067,0,-0.0095,-0.007,-0.0038,-0.0011,0.0,0.0039,0.0068,0.0063,0.0096,0.0106,0.0135,0.0072,0.004,-0.0151,-0.0346,-0.0523,-0.0681,-0.0678,-0.0714,-0.0891,-0.1009,-0.108,-0.1142,-0.0768,-0.0769,-0.077,-0.0771,0,-0.003,-0.0024,0.0007,0.006,0.0096,0.0136,0.0179,0.0215,0.0223,0.0247,0.0277,0.0252,0.0064,-0.0131,-0.0385,-0.0526,-0.0835,-0.0708,-0.0891,-0.1098,-0.1188,-0.1278,-0.0742,-0.0782,-0.0781,-0.078,-0.0779,-0.0779,0.002,0.005,0.0085,0.0136,0.0175,0.0228,0.0266,0.0318,0.037,0.0407,0.0386,0.0346,0.0051,-0.0302,-0.0508,-0.0941,-0.0919,-0.1076,-0.1167,-0.1219,-0.1318,-0.08,-0.0868,-0.0867,-0.0867,-0.0866,-0.0866,0,0.0084,0.0108,0.0159,0.021,0.0256,0.0264,0.0337,0.0371,0.0438,0.0464,0.0474,0.0261,-0.0109,-0.0488,-0.1027,-0.1333,-0.146,-0.1522,-0.1652,-0.1689,-0.1232,-0.1256,-0.1411,-0.1411,-0.1411,-0.141,-0.141,-0.141,0.0118,0.0173,0.0189,0.0265,0.03,0.0352,0.039,0.0443,0.0469,0.0451,0.0384,0.0312,-0.007,-0.0951,-0.1646,-0.18,-0.2047,-0.2104,-0.2201,-0.1919,-0.1885,-0.1852,-0.1898,-0.2185,-0.2186,-0.2633,-0.2638,-0.2641]}],[{"header":{"parameterUnit":"m.s-1","parameterCategory":2,"la1":30.2991,"la2":30.254,"lo1":-89.0895,"lo2":-89.0444,"dy":0.0017,"dx":0.0017,"nx":28,"ny":28,"refTime":"2024-11-29T09:00:00:Z","depth":"2","parameterNumber":2,"parameterNumberName":"U-component_of_CURRENTS"},"data":[0,0,0,0,0,0,0,0,0,0,0,0,0,0,0,0,0,0,0,0,0,0,0,0,0,0,0,0,0,0,0,0,0,0,0,0,0,0,0,0,0,0,0,0,0,0,0,0,0,0,0,0,0,0,0,0,0,0,0.1879,0.1879,0,0.1892,0.1892,0.1892,0.1881,0.188,0.188,0.188,0.1857,0.1857,0.1856,0,0,0,0,0,0,0,0,0,0,0,0,0,0.1832,0.1833,0.1879,0.1879,0.188,0.1892,0.1892,0.1892,0.1881,0.188,0.188,0.188,0.1857,0.1857,0.1856,0,0,0,0,0,0,0,0,0,0,0,0,0,0.1847,0.1833,0.1879,0.1878,0.1878,0.1892,0.1892,0.1892,0.1881,0.188,0.188,0.188,0.1857,0.1857,0.1856,0.1858,0,0,0.1854,0.1854,0,0,0,0,0,0,0,0,0.1846,0.1848,0.1878,0.1878,0.1878,0.1887,0.1867,0.1879,0.1881,0.1877,0.188,0.188,0.1866,0.1865,0.1864,0.1857,0.1856,0.1854,0.1854,0.1853,0.1853,0,0,0,0,0,0,0,0.1845,0.1847,0.1881,0.1878,0.1879,0.1873,0.1874,0.1869,0.187,0.1877,0.1877,0.1883,0.1865,0.1865,0.1863,0.1855,0.1854,0.1854,0.1853,0.1853,0.1876,0.1877,0,0,0,0,0,0,0.185,0.1846,0.1881,0.1882,0.1864,0.1874,0.1876,0.1882,0.1871,0.187,0.1883,0.1883,0.1866,0.1864,0.1862,0.1889,0.1853,0.1853,0.1852,0.1875,0.1876,0.1877,0,0,0,0,0,0,0.1849,0.1853,0.188,0.1866,0.187,0.1876,0.1883,0.1882,0.1886,0.1876,0.1874,0.1888,0.1866,0.1863,0.1867,0.1886,0.1853,0.1852,0.1874,0.1875,0.1877,0.1925,0,0,0,0,0,0,0.1848,0.1853,0.1857,0.1867,0.1871,0.1894,0.1883,0.1883,0.1891,0.189,0.1879,0.1877,0.1865,0.1868,0.1866,0.1885,0.1851,0.1872,0.1874,0.1876,0.1922,0.1928,0.1933,0,0,0,0,0,0.1846,0.1855,0.1858,0.1862,0.1878,0.1895,0.1897,0.1897,0.1892,0.1898,0.1892,0.1877,0.1879,0.1868,0.1866,0.1885,0.1871,0.1874,0.1876,0.1919,0.1927,0.1932,0,0,0,0,0,0,0.1832,0.1855,0.1858,0.1872,0.1886,0.1895,0.1902,0.1902,0.1902,0.1901,0.1886,0.1884,0.1896,0.1884,0.1873,0.1898,0.1874,0.1876,0.1908,0.1915,0.192,0.192,0.1851,0,0,0,0,0,0.1834,0.1849,0.1867,0.1878,0.1888,0.1896,0.1902,0.1906,0.1909,0.1909,0.1902,0.1899,0.1904,0.1903,0.1902,0.1912,0.1913,0.1925,0.193,0.1935,0.1934,0.1956,0.1963,0.1885,0.1885,0.1884,0,0,0.183,0.1847,0.1853,0.1877,0.1887,0.1904,0.1898,0.1915,0.1927,0.1906,0.1917,0.1916,0.1911,0.1926,0.1931,0.1918,0.1961,0.1938,0.1942,0.1938,0.1959,0.1967,0.1973,0.1886,0.1886,0.1886,0,0,0.1837,0.1849,0.1865,0.1881,0.1906,0.1913,0.1921,0.1935,0.194,0.1953,0.1947,0.1959,0.1956,0.1963,0.1965,0.1999,0.1989,0.2,0.2026,0.2047,0.2054,0.206,0.2083,0.2091,0.2002,0.2002,0.2002,0,0.183,0.1855,0.1871,0.1893,0.1908,0.1919,0.1938,0.1949,0.1961,0.1972,0.1962,0.1981,0.1976,0.2003,0.2016,0.2012,0.2021,0.2001,0.2055,0.206,0.2065,0.2088,0.2095,0.2005,0.2004,0.2004,0.2004,0,0.1851,0.187,0.1883,0.1915,0.1932,0.1951,0.1973,0.1989,0.1996,0.2006,0.2033,0.2032,0.2044,0.205,0.2042,0.208,0.2075,0.206,0.2038,0.2076,0.2098,0.2105,0.2008,0.2007,0.2007,0.2006,0,0,0.1828,0.1886,0.1888,0.1907,0.1946,0.196,0.1993,0.2024,0.2045,0.2059,0.2086,0.2102,0.2103,0.2106,0.2104,0.2121,0.217,0.2106,0.2106,0.213,0.2223,0.225,0.226,0.2164,0.2165,0.2166,0.2228,0,0.1836,0.1879,0.1907,0.194,0.1961,0.1991,0.2021,0.2051,0.2072,0.2101,0.2117,0.2138,0.2125,0.2134,0.2153,0.2165,0.2188,0.2154,0.2182,0.2183,0.2202,0.2269,0.2062,0.2102,0.2235,0.2236,0.2237,0,0.1839,0.1871,0.1907,0.1958,0.197,0.1992,0.2041,0.207,0.2119,0.2137,0.2167,0.2177,0.2214,0.2189,0.2238,0.2217,0.2225,0.223,0.2232,0.2243,0.2223,0.2083,0.211,0.2248,0.2248,0.2247,0.2246,0,0.1807,0.1863,0.1893,0.1909,0.1972,0.1995,0.2026,0.2078,0.2104,0.216,0.2184,0.2226,0.2251,0.2269,0.2292,0.2266,0.2343,0.2307,0.2339,0.2341,0.2163,0.2148,0.2339,0.2339,0.2339,0.2339,0.2339,0,0.1797,0.1816,0.188,0.1895,0.1926,0.1979,0.2011,0.2055,0.2112,0.2151,0.2195,0.2238,0.2272,0.2319,0.2321,0.2371,0.2372,0.2363,0.2367,0.2177,0.2163,0.2278,0.227,0.2341,0.2341,0.234,0.234,0,0.175,0.1796,0.1827,0.1894,0.191,0.193,0.1988,0.2018,0.2084,0.2137,0.2158,0.2256,0.2336,0.2372,0.2421,0.242,0.2452,0.2463,0.225,0.223,0.2423,0.2417,0.2505,0.2506,0.2508,0.2509,0.251,0,0.1727,0.1743,0.1805,0.1821,0.1848,0.1883,0.1911,0.1986,0.2026,0.215,0.2182,0.2289,0.2357,0.2462,0.2469,0.25,0.2515,0.2342,0.2261,0.245,0.2444,0.2436,0.2428,0.2036,0.2033,0.2031,0.2029,0,0.1678,0.1704,0.1732,0.1769,0.1798,0.1821,0.1875,0.1901,0.2005,0.2066,0.2176,0.2244,0.2364,0.2333,0.2403,0.2384,0.2323,0.23,0.2539,0.205,0.202,0.2011,0.2016,0.2007,0.2009,0.2011,0.2012,0.2013,0.1629,0.1637,0.1681,0.1707,0.1738,0.1759,0.1756,0.1824,0.1879,0.1951,0.2086,0.2123,0.2185,0.2198,0.216,0.2129,0.2282,0.2167,0.2168,0.2174,0.2132,0.2108,0.2104,0.2107,0.2109,0.2111,0.2113,0,0.1561,0.1589,0.1616,0.1646,0.1647,0.1688,0.1729,0.1717,0.1749,0.1837,0.19,0.1811,0.1815,0.1869,0.1798,0.1843,0.1751,0.1767,0.161,0.1636,0.1658,0.1583,0.1412,0.141,0.1408,0.1406,0,0,0.1527,0.1531,0.1553,0.1541,0.1559,0.153,0.1531,0.1537,0.1576,0.1583,0.1587,0.1703,0.1819,0.1578,0.1574,0.148,0.1529,0.142,0.1986,0.1826,0.1844,0.1905,0.1824,0,0,0,0,0]},{"header":{"parameterUnit":"m.s-1","parameterCategory":2,"la1":30.2991,"la2":30.254,"lo1":-89.0895,"lo2":-89.0444,"dy":0.0017,"dx":0.0017,"nx":28,"ny":28,"refTime":"2024-11-29T09:00:00:Z","depth":"2","parameterNumber":3,"parameterNumberName":"V-component_of_CURRENTS"},"data":[0,0,0,0,0,0,0,0,0,0,0,0,0,0,0,0,0,0,0,0,0,0,0,0,0,0,0,0,0,0,0,0,0,0,0,0,0,0,0,0,0,0,0,0,0,0,0,0,0,0,0,0,0,0,0,0,0,0,-0.041,-0.041,0,-0.0455,-0.0456,-0.0457,-0.0483,-0.0483,-0.0483,-0.0483,-0.0517,-0.0518,-0.0519,0,0,0,0,0,0,0,0,0,0,0,0,0,-0.0384,-0.0384,-0.041,-0.041,-0.0411,-0.0455,-0.0456,-0.0457,-0.0483,-0.0483,-0.0483,-0.0484,-0.0517,-0.0518,-0.0519,0,0,0,0,0,0,0,0,0,0,0,0,0,-0.0409,-0.0384,-0.041,-0.0429,-0.0431,-0.0455,-0.0456,-0.0457,-0.0483,-0.0483,-0.0483,-0.0484,-0.0516,-0.0518,-0.0519,-0.0526,0,0,-0.0523,-0.0523,0,0,0,0,0,0,0,0,-0.0408,-0.041,-0.0425,-0.0427,-0.043,-0.0463,-0.0459,-0.0479,-0.0483,-0.0464,-0.0483,-0.0484,-0.0497,-0.05,-0.051,-0.0527,-0.0529,-0.0523,-0.0524,-0.0524,-0.0525,0,0,0,0,0,0,0,-0.0406,-0.0409,-0.0429,-0.0426,-0.0429,-0.0448,-0.0452,-0.0463,-0.048,-0.0466,-0.0468,-0.0472,-0.0499,-0.0509,-0.0511,-0.0529,-0.0523,-0.0524,-0.0525,-0.0525,-0.0555,-0.0555,0,0,0,0,0,0,-0.0397,-0.0407,-0.0427,-0.043,-0.0418,-0.0448,-0.0452,-0.0453,-0.048,-0.0485,-0.0472,-0.0473,-0.0506,-0.0509,-0.0512,-0.0514,-0.0524,-0.0525,-0.0526,-0.0555,-0.0555,-0.0555,0,0,0,0,0,0,-0.0396,-0.0398,-0.0425,-0.0419,-0.0424,-0.0448,-0.0449,-0.0454,-0.0463,-0.0485,-0.0489,-0.0476,-0.0507,-0.051,-0.052,-0.0516,-0.0526,-0.0527,-0.0555,-0.0555,-0.0555,-0.0522,0,0,0,0,0,0,-0.0395,-0.0397,-0.0396,-0.0418,-0.0424,-0.0435,-0.0449,-0.0455,-0.0465,-0.0467,-0.049,-0.0493,-0.0507,-0.0518,-0.0521,-0.0518,-0.0528,-0.0555,-0.0555,-0.0555,-0.0523,-0.0521,-0.0519,0,0,0,0,0,-0.0394,-0.0387,-0.0395,-0.0398,-0.042,-0.0435,-0.0439,-0.0458,-0.0465,-0.0467,-0.0482,-0.0492,-0.0521,-0.0519,-0.0523,-0.0519,-0.0555,-0.0555,-0.0555,-0.0524,-0.0522,-0.0519,0,0,0,0,0,0,-0.0374,-0.039,-0.0399,-0.0398,-0.0414,-0.0439,-0.0441,-0.0455,-0.047,-0.047,-0.0492,-0.0496,-0.0505,-0.0517,-0.0514,-0.0529,-0.054,-0.0541,-0.0515,-0.0513,-0.0511,-0.049,-0.0529,0,0,0,0,0,-0.0369,-0.0369,-0.0389,-0.0388,-0.0394,-0.0418,-0.0426,-0.0439,-0.0455,-0.0462,-0.0478,-0.0495,-0.0509,-0.0513,-0.0529,-0.0534,-0.0546,-0.0536,-0.0534,-0.0532,-0.0518,-0.0537,-0.0535,-0.0555,-0.0555,-0.0555,0,0,-0.0361,-0.037,-0.037,-0.0385,-0.0398,-0.0399,-0.0423,-0.0431,-0.0431,-0.0462,-0.0466,-0.0489,-0.0509,-0.0517,-0.0522,-0.0525,-0.0534,-0.0532,-0.053,-0.0517,-0.0536,-0.0534,-0.0532,-0.0555,-0.0555,-0.0555,0,0,-0.0342,-0.0353,-0.0345,-0.0355,-0.0371,-0.0384,-0.0385,-0.0408,-0.0417,-0.0427,-0.0449,-0.0466,-0.0488,-0.0501,-0.051,-0.0505,-0.0525,-0.0515,-0.0484,-0.0502,-0.05,-0.0499,-0.0516,-0.0516,-0.0511,-0.0511,-0.0511,0,-0.0331,-0.0325,-0.0346,-0.0341,-0.0343,-0.0374,-0.0364,-0.0379,-0.0402,-0.0403,-0.0422,-0.0455,-0.0478,-0.0481,-0.0483,-0.0499,-0.0513,-0.0491,-0.0499,-0.0497,-0.0496,-0.0514,-0.0515,-0.0509,-0.0509,-0.051,-0.051,0,-0.0307,-0.0302,-0.0298,-0.03,-0.0306,-0.0303,-0.0323,-0.0328,-0.0346,-0.0363,-0.0376,-0.0412,-0.0428,-0.0445,-0.0463,-0.0466,-0.048,-0.0496,-0.0501,-0.0492,-0.0512,-0.0513,-0.0507,-0.0507,-0.0508,-0.0508,0,0,-0.0275,-0.0279,-0.0276,-0.0265,-0.0282,-0.0278,-0.0278,-0.0282,-0.0271,-0.0309,-0.03,-0.0342,-0.0366,-0.0378,-0.0409,-0.0426,-0.0442,-0.0454,-0.0456,-0.0465,-0.0481,-0.0507,-0.0511,-0.0461,-0.0461,-0.0461,-0.0499,0,-0.0247,-0.0222,-0.0236,-0.0209,-0.0195,-0.0218,-0.0211,-0.022,-0.0237,-0.0239,-0.0281,-0.0292,-0.0339,-0.0348,-0.0374,-0.0421,-0.0442,-0.0429,-0.0493,-0.0495,-0.0514,-0.0512,-0.0466,-0.0498,-0.05,-0.05,-0.0501,0,-0.0213,-0.02,-0.0169,-0.0151,-0.0146,-0.0137,-0.0121,-0.0121,-0.0138,-0.0155,-0.018,-0.0215,-0.0247,-0.0292,-0.0363,-0.0353,-0.041,-0.0453,-0.0456,-0.0488,-0.0523,-0.0508,-0.05,-0.0503,-0.0503,-0.0503,-0.0502,0,-0.0165,-0.0147,-0.0117,-0.0113,-0.0104,-0.0088,-0.0084,-0.0092,-0.0081,-0.0102,-0.0097,-0.0149,-0.0168,-0.0244,-0.0339,-0.0351,-0.0418,-0.0447,-0.0524,-0.0527,-0.0503,-0.0504,-0.0496,-0.0496,-0.0496,-0.0496,-0.0496,0,-0.0123,-0.0094,-0.009,-0.007,-0.0027,-0.004,-0.0001,-0.0008,-0.0008,0.0017,-0.005,-0.004,-0.0157,-0.0213,-0.031,-0.0417,-0.0399,-0.0513,-0.0537,-0.0492,-0.0492,-0.0507,-0.0508,-0.0498,-0.0497,-0.0497,-0.0497,0,-0.0071,-0.0072,-0.0032,-0.0013,-0.0003,0.0028,0.0052,0.008,0.0067,0.0099,0.0096,0.0044,-0.0031,-0.0152,-0.0272,-0.0373,-0.0477,-0.0521,-0.0462,-0.0479,-0.0582,-0.058,-0.061,-0.0611,-0.0612,-0.0613,-0.0614,0,-0.0039,-0.0015,0.0017,0.0043,0.0054,0.0092,0.012,0.0116,0.0149,0.0158,0.0186,0.0122,0.0091,-0.01,-0.0271,-0.0442,-0.048,-0.0536,-0.0557,-0.0572,-0.0592,-0.0589,-0.0587,-0.0513,-0.0513,-0.0513,-0.0513,0,0.0022,0.0028,0.0059,0.0111,0.0146,0.0186,0.0228,0.0264,0.0273,0.0298,0.0326,0.0301,0.0132,-0.0022,-0.0267,-0.0385,-0.0508,-0.0541,-0.056,-0.0498,-0.0486,-0.0504,-0.0504,-0.0511,-0.0511,-0.0511,-0.0512,-0.0512,0.0071,0.01,0.0134,0.0184,0.0222,0.0275,0.0313,0.0374,0.0427,0.0479,0.0445,0.0421,0.0239,-0.0053,-0.0258,-0.0485,-0.0494,-0.0579,-0.0577,-0.0576,-0.0564,-0.0556,-0.0592,-0.0592,-0.0593,-0.0593,-0.0594,0,0.0139,0.0155,0.0206,0.0256,0.0309,0.0309,0.0381,0.0434,0.0515,0.0558,0.0578,0.0434,0.0246,0.002,-0.0299,-0.0506,-0.0507,-0.058,-0.0528,-0.0528,-0.0528,-0.0512,-0.0527,-0.0527,-0.0528,-0.0528,0,0,0.0174,0.0231,0.0247,0.0325,0.0354,0.042,0.0457,0.054,0.059,0.0652,0.0642,0.06,0.032,0.0109,-0.0158,-0.0348,-0.0398,-0.0387,-0.0419,-0.0326,-0.0324,-0.0505,-0.0479,0,0,0,0,0]}],[{"header":{"parameterUnit":"m.s-1","parameterCategory":2,"la1":30.2991,"la2":30.254,"lo1":-89.0895,"lo2":-89.0444,"dy":0.0017,"dx":0.0017,"nx":28,"ny":28,"refTime":"2024-11-29T09:00:00:Z","depth":"4","parameterNumber":2,"parameterNumberName":"U-component_of_CURRENTS"},"data":[0,0,0,0,0,0,0,0,0,0,0,0,0,0,0,0,0,0,0,0,0,0,0,0,0,0,0,0,0,0,0,0,0,0,0,0,0,0,0,0,0,0,0,0,0,0,0,0,0,0,0,0,0,0,0,0,0,0,0.1266,0.1267,0,0.1309,0.1309,0.131,0.135,0.135,0.1351,0.1352,0.1396,0.1396,0.1397,0,0,0,0,0,0,0,0,0,0,0,0,0,0.1199,0.12,0.1266,0.1267,0.1267,0.1309,0.1309,0.131,0.135,0.135,0.1351,0.1352,0.1395,0.1396,0.1397,0,0,0,0,0,0,0,0,0,0,0,0,0,0.1232,0.12,0.1266,0.1294,0.1297,0.1309,0.1309,0.131,0.135,0.1351,0.1352,0.1352,0.1395,0.1396,0.1397,0.1382,0,0,0.1399,0.14,0,0,0,0,0,0,0,0,0.123,0.1234,0.1289,0.1292,0.1295,0.1327,0.1302,0.1335,0.1349,0.1328,0.1352,0.1353,0.1373,0.1376,0.1379,0.1384,0.1386,0.1399,0.14,0.14,0.14,0,0,0,0,0,0,0,0.1228,0.1232,0.1281,0.129,0.1294,0.1297,0.1303,0.1308,0.1343,0.133,0.1333,0.134,0.1375,0.1378,0.138,0.1386,0.1399,0.14,0.1401,0.1401,0.1467,0.1468,0,0,0,0,0,0,0.1226,0.123,0.128,0.1283,0.1266,0.1298,0.1304,0.1314,0.1343,0.1349,0.1339,0.1342,0.1376,0.1379,0.1382,0.1444,0.14,0.1401,0.1401,0.1466,0.1467,0.1469,0,0,0,0,0,0,0.1224,0.123,0.1278,0.1259,0.1265,0.1298,0.1309,0.1314,0.1346,0.1351,0.1356,0.1369,0.1377,0.1381,0.1414,0.1443,0.1401,0.1402,0.1464,0.1466,0.1468,0.1517,0,0,0,0,0,0,0.1222,0.1229,0.1246,0.1259,0.1267,0.1303,0.1308,0.1315,0.1348,0.1353,0.1377,0.138,0.1378,0.1413,0.1414,0.1443,0.1403,0.1463,0.1465,0.1467,0.1514,0.152,0.1526,0,0,0,0,0,0.122,0.1234,0.1247,0.1254,0.1285,0.1304,0.1308,0.1333,0.1349,0.1365,0.1386,0.1381,0.1429,0.1414,0.1416,0.1446,0.1461,0.1464,0.1467,0.1511,0.1519,0.1526,0,0,0,0,0,0,0.1212,0.124,0.1254,0.1277,0.1299,0.1312,0.1333,0.1347,0.1376,0.139,0.1394,0.1399,0.1439,0.1434,0.1418,0.1472,0.1446,0.1449,0.1479,0.1486,0.1492,0.1495,0.1403,0,0,0,0,0,0.1218,0.1241,0.1262,0.1284,0.1298,0.132,0.1336,0.1354,0.1375,0.139,0.1408,0.1428,0.1446,0.1461,0.1474,0.15,0.1499,0.1521,0.1528,0.1533,0.1538,0.1561,0.1569,0.1478,0.1478,0.1478,0,0,0.1221,0.1241,0.1255,0.1285,0.1306,0.1327,0.1333,0.1366,0.1391,0.1389,0.1437,0.1451,0.1459,0.1492,0.151,0.1496,0.156,0.1536,0.1541,0.1543,0.1565,0.1574,0.1581,0.148,0.1479,0.1479,0,0,0.123,0.1258,0.1279,0.13,0.1337,0.135,0.1366,0.1396,0.1422,0.146,0.147,0.1504,0.153,0.1544,0.1551,0.1597,0.1591,0.1607,0.1641,0.1664,0.1671,0.1678,0.1693,0.17,0.161,0.161,0.161,0,0.1235,0.1264,0.1287,0.1311,0.1335,0.1363,0.1389,0.1413,0.1453,0.1479,0.1486,0.1544,0.1553,0.1592,0.1613,0.1611,0.1621,0.1612,0.1672,0.1678,0.1684,0.1697,0.1705,0.1613,0.1612,0.1612,0.1612,0,0.1251,0.1285,0.13,0.1342,0.1367,0.1397,0.143,0.1467,0.1503,0.1526,0.1586,0.1602,0.1637,0.1648,0.1646,0.1698,0.1691,0.1676,0.1652,0.1696,0.1707,0.1715,0.1616,0.1615,0.1615,0.1614,0,0,0.1232,0.1299,0.1308,0.1338,0.1391,0.1411,0.146,0.1508,0.1549,0.1593,0.1642,0.1683,0.1703,0.1713,0.1721,0.1743,0.1796,0.1735,0.1735,0.1747,0.185,0.1751,0.1749,0.1797,0.1798,0.1799,0.1841,0,0.1242,0.1292,0.1325,0.1378,0.1406,0.1453,0.1494,0.1544,0.159,0.1643,0.1677,0.1726,0.1724,0.1753,0.1777,0.1793,0.1817,0.1786,0.1806,0.1807,0.1711,0.1754,0.1804,0.1847,0.1848,0.1849,0.185,0,0.1242,0.1281,0.1335,0.1406,0.1425,0.1463,0.1542,0.1584,0.1656,0.1695,0.1749,0.1775,0.1829,0.1814,0.1869,0.1853,0.1861,0.1865,0.1866,0.1761,0.1721,0.1792,0.1863,0.1862,0.1861,0.186,0.1859,0,0.1213,0.1286,0.1334,0.1358,0.1439,0.1483,0.1531,0.1606,0.1648,0.1735,0.1773,0.1833,0.1873,0.1897,0.1918,0.1903,0.1965,0.1938,0.1856,0.1849,0.1903,0.1895,0.1974,0.1974,0.1974,0.1974,0.1974,0,0.1198,0.1239,0.1331,0.1358,0.1419,0.1483,0.1551,0.1609,0.1688,0.1734,0.1803,0.1841,0.1899,0.1937,0.1942,0.1923,0.1987,0.1869,0.1855,0.1923,0.1917,0.1908,0.1899,0.1976,0.1975,0.1975,0.1975,0,0.1154,0.1216,0.1275,0.1374,0.1408,0.1454,0.1553,0.1596,0.1683,0.1746,0.1777,0.1864,0.1913,0.1953,0.1995,0.1943,0.194,0.1917,0.1998,0.1987,0.1801,0.1795,0.1819,0.1815,0.1813,0.1811,0.1809,0,0.1133,0.1163,0.1274,0.1311,0.1362,0.1438,0.1484,0.1582,0.1623,0.1744,0.1763,0.1849,0.1894,0.1866,0.1924,0.1926,0.1905,0.1888,0.1831,0.1802,0.1787,0.1785,0.1782,0.1805,0.1804,0.1803,0.1803,0,0.1092,0.1146,0.1196,0.127,0.1331,0.1382,0.1459,0.1475,0.1583,0.1674,0.17,0.1723,0.1775,0.1798,0.1818,0.1816,0.1888,0.186,0.1865,0.1811,0.1785,0.1772,0.1773,0.1793,0.1795,0.1796,0.1796,0,0.1064,0.1087,0.1161,0.1213,0.1284,0.1311,0.1356,0.1399,0.1445,0.1571,0.158,0.1671,0.1756,0.1744,0.1764,0.1755,0.1722,0.1656,0.167,0.1681,0.1617,0.1563,0.1498,0,0,0,0,0,0.1026,0.1045,0.1095,0.1149,0.1213,0.1251,0.1332,0.1377,0.1477,0.1455,0.1509,0.1548,0.1572,0.1624,0.1585,0.1717,0.1738,0.1666,0.1672,0.1743,0.1754,0.1692,0,0,0,0,0,0,0.1002,0.105,0.107,0.1082,0.1103,0.1159,0.1205,0.1271,0.126,0.1364,0.1382,0.1462,0.1508,0.1576,0.1557,0.1573,0.1547,0.1726,0.1723,0.1737,0.1747,0.1755,0.1695,0,0,0,0,0]},{"header":{"parameterUnit":"m.s-1","parameterCategory":2,"la1":30.2991,"la2":30.254,"lo1":-89.0895,"lo2":-89.0444,"dy":0.0017,"dx":0.0017,"nx":28,"ny":28,"refTime":"2024-11-29T09:00:00:Z","depth":"4","parameterNumber":3,"parameterNumberName":"V-component_of_CURRENTS"},"data":[0,0,0,0,0,0,0,0,0,0,0,0,0,0,0,0,0,0,0,0,0,0,0,0,0,0,0,0,0,0,0,0,0,0,0,0,0,0,0,0,0,0,0,0,0,0,0,0,0,0,0,0,0,0,0,0,0,0,0.0054,0.0054,0,0.0026,0.0025,0.0025,-0.0,-0.0001,-0.0001,-0.0001,-0.0025,-0.0026,-0.0026,0,0,0,0,0,0,0,0,0,0,0,0,0,0.0065,0.0065,0.0054,0.0054,0.0054,0.0026,0.0025,0.0025,-0.0,-0.0001,-0.0001,-0.0001,-0.0025,-0.0025,-0.0026,0,0,0,0,0,0,0,0,0,0,0,0,0,0.0051,0.0065,0.0054,0.0038,0.0036,0.0026,0.0025,0.0025,-0.0,-0.0001,-0.0001,-0.0001,-0.0025,-0.0025,-0.0026,-0.0021,0,0,-0.0028,-0.0028,0,0,0,0,0,0,0,0,0.0052,0.0051,0.004,0.0039,0.0037,0.0016,0.002,0.001,-0.0,0.0013,-0.0001,-0.0002,-0.0011,-0.0012,-0.0017,-0.0022,-0.0023,-0.0028,-0.0028,-0.0028,-0.0029,0,0,0,0,0,0,0,0.0053,0.0052,0.0043,0.004,0.0038,0.0024,0.0022,0.0018,0.0004,0.0012,0.001,0.0007,-0.0012,-0.0016,-0.0018,-0.0023,-0.0028,-0.0028,-0.0029,-0.0029,-0.0035,-0.0035,0,0,0,0,0,0,0.0058,0.0053,0.0044,0.0042,0.0044,0.0024,0.0022,0.0023,0.0004,0.0001,0.0008,0.0006,-0.0015,-0.0017,-0.0019,-0.0017,-0.0028,-0.0029,-0.0029,-0.0036,-0.0035,-0.0035,0,0,0,0,0,0,0.0059,0.0058,0.0045,0.0046,0.0044,0.0025,0.0026,0.0023,0.0014,0.0001,-0.0003,0.0003,-0.0016,-0.0018,-0.0023,-0.0018,-0.0029,-0.003,-0.0036,-0.0036,-0.0035,-0.0012,0,0,0,0,0,0,0.0059,0.0058,0.0061,0.0047,0.0044,0.0042,0.0026,0.0022,0.0013,0.0011,-0.0005,-0.0007,-0.0016,-0.0022,-0.0024,-0.0019,-0.003,-0.0036,-0.0036,-0.0035,-0.0013,-0.0011,-0.001,0,0,0,0,0,0.006,0.007,0.0061,0.006,0.0048,0.0042,0.004,0.0024,0.0013,0.0014,0.0001,-0.0007,-0.0022,-0.0023,-0.0025,-0.002,-0.0036,-0.0036,-0.0035,-0.0014,-0.0012,-0.001,0,0,0,0,0,0,0.008,0.0068,0.0058,0.0064,0.0053,0.0038,0.0039,0.0025,0.0015,0.0012,-0.0004,-0.0007,-0.001,-0.0018,-0.0019,-0.0021,-0.003,-0.003,-0.0013,-0.0011,-0.001,-0.0013,-0.0031,0,0,0,0,0,0.0084,0.0087,0.0072,0.0076,0.0072,0.0054,0.0049,0.0038,0.0027,0.0021,0.0007,-0.0004,-0.0009,-0.0013,-0.0019,-0.0019,-0.0043,-0.0018,-0.0016,-0.0015,-0.0019,-0.0051,-0.0053,-0.0034,-0.0034,-0.0034,0,0,0.0094,0.0087,0.0088,0.008,0.0071,0.0071,0.005,0.0046,0.0044,0.0021,0.0015,0.0003,-0.0007,-0.0009,-0.0011,-0.0016,-0.0032,-0.0014,-0.0013,-0.0018,-0.0051,-0.0053,-0.0055,-0.0034,-0.0034,-0.0034,0,0,0.0115,0.0107,0.0115,0.0108,0.0095,0.0085,0.0084,0.0065,0.0056,0.0048,0.0033,0.002,0.0011,0.0002,-0.0002,0.0006,-0.002,0.0006,0.0012,-0.0019,-0.0021,-0.0024,-0.0053,-0.0058,0.0006,0.0006,0.0006,0,0.0127,0.0132,0.0117,0.0121,0.0117,0.0093,0.0099,0.0089,0.007,0.0061,0.005,0.0024,0.0016,0.0011,0.0013,0.001,-0.0014,0.0006,-0.0018,-0.002,-0.0023,-0.0053,-0.0059,0.0007,0.0007,0.0007,0.0007,0,0.0151,0.0153,0.0158,0.0154,0.015,0.0151,0.0135,0.0127,0.0108,0.009,0.0074,0.0053,0.0035,0.0033,0.0025,0.0008,-0.0006,-0.0011,-0.0024,-0.0023,-0.0055,-0.0062,0.0009,0.0009,0.0008,0.0008,0,0,0.0182,0.0176,0.0177,0.0178,0.0165,0.0166,0.0165,0.0153,0.0147,0.0119,0.0106,0.0089,0.0063,0.0056,0.004,0.0012,-0.0025,-0.0008,-0.001,-0.0038,-0.01,-0.0094,-0.0101,-0.0038,-0.0039,-0.004,-0.0114,0,0.0203,0.0217,0.0208,0.022,0.0224,0.0204,0.0204,0.0189,0.0168,0.0149,0.0116,0.01,0.0077,0.0066,0.0033,-0.0006,-0.0042,-0.0005,-0.0095,-0.0098,-0.0094,-0.0108,-0.0043,-0.0119,-0.012,-0.0121,-0.0122,0,0.0227,0.0232,0.0247,0.0246,0.0246,0.0251,0.0241,0.0237,0.0206,0.0187,0.0155,0.0125,0.0087,0.0064,-0.0019,0.0004,-0.005,-0.0087,-0.0091,-0.01,-0.0104,-0.012,-0.0134,-0.0133,-0.0132,-0.0132,-0.0131,0,0.0251,0.0259,0.0272,0.0271,0.0268,0.0272,0.0268,0.0247,0.0244,0.0208,0.0199,0.0141,0.0116,0.0041,-0.0035,-0.0033,-0.0132,-0.0137,-0.0187,-0.0187,-0.018,-0.0177,-0.021,-0.021,-0.021,-0.0209,-0.0209,0,0.0271,0.0283,0.0284,0.0291,0.0306,0.0295,0.0303,0.0289,0.0272,0.0272,0.0219,0.0207,0.0107,0.0043,-0.0035,-0.0128,-0.0136,-0.0193,-0.0208,-0.0168,-0.0162,-0.0185,-0.0181,-0.0212,-0.0212,-0.0211,-0.0211,0,0.0291,0.0292,0.0308,0.0313,0.0317,0.0326,0.0332,0.0337,0.0317,0.0317,0.0308,0.0247,0.0166,0.0065,-0.0056,-0.0119,-0.0211,-0.0245,-0.0195,-0.0204,-0.0248,-0.0242,-0.0312,-0.0312,-0.0313,-0.0313,-0.0313,0,0.0299,0.031,0.0327,0.0341,0.0345,0.0358,0.037,0.0358,0.0368,0.0347,0.0352,0.0277,0.0226,0.0063,-0.005,-0.0206,-0.0226,-0.028,-0.027,-0.0252,-0.026,-0.0253,-0.0247,-0.0314,-0.0314,-0.0314,-0.0314,0,0.0315,0.0323,0.0336,0.0367,0.0385,0.0404,0.0422,0.0432,0.0425,0.0414,0.0388,0.03,0.0206,0.0074,-0.0051,-0.016,-0.0247,-0.0285,-0.0285,-0.0276,-0.0255,-0.0261,-0.0254,-0.0316,-0.0315,-0.0315,-0.0315,0,0.0327,0.0339,0.0361,0.0386,0.0414,0.044,0.0445,0.0457,0.0458,0.044,0.0431,0.0327,0.0263,0.0097,-0.0013,-0.0125,-0.0155,-0.0192,-0.0197,-0.0197,-0.0141,-0.0097,-0.0127,0,0,0,0,0,0.0336,0.0353,0.0379,0.0405,0.0436,0.0453,0.0478,0.0482,0.0483,0.0473,0.0452,0.0367,0.0201,0.0128,0.0018,-0.0031,-0.0182,-0.0166,-0.0228,-0.0323,-0.0322,-0.0274,0,0,0,0,0,0,0.0342,0.0369,0.0379,0.0417,0.0441,0.0473,0.0491,0.0492,0.0485,0.0474,0.039,0.0342,0.0182,0.0269,0.0019,-0.0017,-0.0072,-0.0245,-0.0247,-0.0324,-0.0323,-0.0321,-0.0272,0,0,0,0,0]}]]